Melbourne, FL

8:36 PM EDT on June 28, 2017 (GMT -0400)
Melbourne International

Weather History for KMLB - May, 2013

Change the Weather History Date:

Wednesday, May 15, 2013

  Actual Average Record
Temperature  
Mean Temperature 71 °F 76 °F  
Max Temperature 81 °F 86 °F 96 °F (1995)
Min Temperature 60 °F 67 °F 51 °F (1960)
Degree Days  
Heating Degree Days 0 0  
Month to date heating degree days 0 0  
Since 1 July heating degree days 463 576  
Cooling Degree Days 6 11  
Month to date cooling degree days 124 147  
Year to date cooling degree days 658 522  
Growing Degree Days 20 (Base 50)    
Moisture  
Dew Point 57 °F    
Average Humidity 70    
Maximum Humidity 97    
Minimum Humidity 42    
Precipitation  
Precipitation 0.00 in 0.09 in 2.14 in (1976)
Month to date precipitation 1.95 1.15  
Year to date precipitation 10.89 11.36  
Sea Level Pressure  
Sea Level Pressure 30.17 in    
Wind  
Wind Speed 8 mph (East)    
Max Wind Speed 15 mph    
Max Gust Speed 22 mph    
Visibility 10 miles    
Events      
T = Trace of Precipitation, MM = Missing Value Source: NWS Daily Summary

Daily Weather History Graph

Daily Weather History Graph

Search for Another Location

Airport or City:

Trip Planner

Search our weather history database for the weather conditions in past years. The results will help you decide how hot, cold, wet, or windy it might be!

Date:

Astronomy

May. 15, 2013 Rise Set
Actual Time 6:32 AM EDT 8:05 PM EDT
Civil Twilight 6:07 AM EDT 8:31 PM EDT
Nautical Twilight 5:36 AM EDT 9:01 PM EDT
Astronomical Twilight 5:04 AM EDT 9:33 PM EDT
Moon 11:02 AM EDT (5/15) No Moon Set
Length of Visible Light 14h 24m
Length of Day
13h 33m
Waxing Crescent, 26% of the Moon is Illuminated
May 15
Waxing Crescent
May 18
First Quarter
May 25
Full
May 31
Last Quarter
Jun 8
New

Hourly Weather History & Observations

Time (EDT) Temp. Heat Index Dew Point Humidity Pressure Visibility Wind Dir Wind Speed Gust Speed Precip Events Conditions
12:53 AM 73.0 °F - 54.0 °F 51% 30.20 in 10.0 mi East 8.1 mph - N/A   Clear
1:53 AM 73.0 °F - 53.1 °F 49% 30.19 in 10.0 mi East 9.2 mph - N/A   Clear
2:53 AM 72.0 °F - 53.1 °F 51% 30.17 in 10.0 mi East 6.9 mph - N/A   Clear
3:53 AM 72.0 °F - 54.0 °F 53% 30.17 in 10.0 mi East 4.6 mph - N/A   Clear
4:53 AM 61.0 °F - 55.9 °F 83% 30.17 in 10.0 mi West 5.8 mph - N/A   Clear
5:53 AM 60.1 °F - 57.0 °F 90% 30.17 in 10.0 mi West 3.5 mph - N/A   Clear
6:53 AM 61.0 °F - 59.0 °F 93% 30.19 in 10.0 mi WNW 3.5 mph - N/A   Scattered Clouds
7:53 AM 66.0 °F - 60.1 °F 81% 30.20 in 10.0 mi Calm Calm - N/A   Partly Cloudy
8:53 AM 75.9 °F - 59.0 °F 56% 30.21 in 10.0 mi Calm Calm - N/A   Scattered Clouds
9:53 AM 78.1 °F - 57.0 °F 48% 30.22 in 10.0 mi ESE 9.2 mph - N/A   Mostly Cloudy
10:53 AM 79.0 °F - 55.9 °F 45% 30.22 in 10.0 mi ENE 8.1 mph - N/A   Scattered Clouds
11:53 AM 79.0 °F - 55.0 °F 44% 30.22 in 10.0 mi NE 11.5 mph - N/A   Scattered Clouds
12:53 PM 80.1 °F 80.1 °F 55.0 °F 42% 30.22 in 10.0 mi East 10.4 mph - N/A   Clear
1:53 PM 80.1 °F 80.1 °F 55.0 °F 42% 30.21 in 10.0 mi East 12.7 mph - N/A   Clear
2:53 PM 81.0 °F 80.8 °F 55.9 °F 42% 30.18 in 10.0 mi ESE 12.7 mph - N/A   Clear
3:53 PM 80.1 °F 80.2 °F 55.9 °F 43% 30.16 in 10.0 mi East 13.8 mph 19.6 mph N/A   Clear
4:53 PM 79.0 °F - 57.0 °F 47% 30.15 in 10.0 mi East 11.5 mph 18.4 mph N/A   Clear
5:53 PM 78.1 °F - 57.9 °F 50% 30.13 in 10.0 mi ESE 6.9 mph - N/A   Clear
6:53 PM 77.0 °F - 57.9 °F 52% 30.13 in 10.0 mi ESE 9.2 mph - N/A   Clear
7:53 PM 75.0 °F - 57.9 °F 55% 30.13 in 10.0 mi ESE 10.4 mph - N/A   Clear
8:53 PM 75.0 °F - 59.0 °F 57% 30.14 in 10.0 mi ESE 5.8 mph - N/A   Clear
9:53 PM 73.9 °F - 60.1 °F 62% 30.14 in 10.0 mi ESE 6.9 mph - N/A   Clear
10:53 PM 73.9 °F - 60.1 °F 62% 30.14 in 10.0 mi SSE 8.1 mph - N/A   Partly Cloudy
11:53 PM 73.9 °F - 60.1 °F 62% 30.14 in 10.0 mi SE 8.1 mph - N/A   Clear